• In Deutschland
  • Länderverzeichnis
  • Für 7 Tage
  • Wassertemperatur
  • Satellitenkarten
  • Wetterkarte
  • Widgets
  • user-avatar
    Anmelden

    Stündliche Wetter Tschachansur

    Heute, 26 September, Dienstag

    Zeit Temperatur Niederschläge Wind Luftdruck Luftfeuchtigkeit
    00:00 +30°C° 0 mm 7 m/S 715 mmHg 13%
    01:00 +29°C° 0 mm 6 m/S 715 mmHg 14%
    02:00 +28°C° 0 mm 6 m/S 714 mmHg 15%
    03:00 +27°C° 0 mm 6 m/S 714 mmHg 15%
    04:00 +27°C° 0 mm 5 m/S 714 mmHg 16%
    05:00 +27°C° 0 mm 5 m/S 715 mmHg 16%
    06:00 +27°C° 0 mm 5 m/S 715 mmHg 15%
    07:00 +27°C° 0 mm 5 m/S 716 mmHg 15%
    08:00 +29°C° 0 mm 5 m/S 716 mmHg 13%
    09:00 +32°C° 0 mm 5 m/S 716 mmHg 11%
    10:00 +34°C° 0 mm 5 m/S 717 mmHg 9%
    11:00 +36°C° 0 mm 4 m/S 716 mmHg 8%
    12:00 +37°C° 0 mm 4 m/S 716 mmHg 7%
    13:00 +38°C° 0 mm 3 m/S 716 mmHg 6%
    14:00 +40°C° 0 mm 4 m/S 716 mmHg 6%
    15:00 +40°C° 0 mm 4 m/S 716 mmHg 6%
    16:00 +41°C° 0 mm 4 m/S 715 mmHg 6%
    17:00 +38°C° 0 mm 4 m/S 715 mmHg 7%
    18:00 +36°C° 0 mm 5 m/S 715 mmHg 8%
    19:00 +35°C° 0 mm 5 m/S 716 mmHg 10%
    20:00 +34°C° 0 mm 5 m/S 716 mmHg 11%
    21:00 +34°C° 0 mm 6 m/S 716 mmHg 12%
    22:00 +33°C° 0 mm 7 m/S 716 mmHg 13%
    23:00 +32°C° 0 mm 7 m/S 716 mmHg 13%

    Morgen, 27 September, Mittwoch

    Zeit Temperatur Niederschläge Wind Luftdruck Luftfeuchtigkeit
    00:00 +30°C° 0 mm 7 m/S 716 mmHg 14%
    01:00 +30°C° 0 mm 6 m/S 716 mmHg 15%
    02:00 +29°C° 0 mm 7 m/S 716 mmHg 15%
    03:00 +29°C° 0 mm 7 m/S 716 mmHg 15%
    04:00 +28°C° 0 mm 7 m/S 716 mmHg 16%
    05:00 +28°C° 0 mm 7 m/S 716 mmHg 16%
    06:00 +28°C° 0 mm 7 m/S 717 mmHg 16%
    07:00 +28°C° 0 mm 7 m/S 717 mmHg 16%
    08:00 +30°C° 0 mm 7 m/S 718 mmHg 14%
    09:00 +33°C° 0 mm 8 m/S 718 mmHg 13%
    10:00 +35°C° 0 mm 8 m/S 718 mmHg 11%
    11:00 +37°C° 0 mm 8 m/S 718 mmHg 10%
    12:00 +39°C° 0 mm 7 m/S 718 mmHg 9%
    13:00 +40°C° 0 mm 7 m/S 717 mmHg 8%
    14:00 +40°C° 0 mm 7 m/S 717 mmHg 8%
    15:00 +40°C° 0 mm 7 m/S 717 mmHg 8%
    16:00 +40°C° 0 mm 7 m/S 716 mmHg 8%
    17:00 +39°C° 0 mm 7 m/S 716 mmHg 9%
    18:00 +38°C° 0 mm 7 m/S 716 mmHg 10%
    19:00 +35°C° 0 mm 6 m/S 716 mmHg 12%
    20:00 +34°C° 0 mm 6 m/S 716 mmHg 13%
    21:00 +33°C° 0 mm 6 m/S 716 mmHg 14%
    22:00 +32°C° 0 mm 6 m/S 717 mmHg 15%
    23:00 +32°C° 0 mm 6 m/S 716 mmHg 16%

    übermorgen, 28 September, Donnerstag

    Zeit Temperatur Niederschläge Wind Luftdruck Luftfeuchtigkeit
    00:00 +30°C° 0 mm 6 m/S 716 mmHg 17%
    01:00 +29°C° 0 mm 6 m/S 716 mmHg 18%
    02:00 +28°C° 0 mm 6 m/S 716 mmHg 19%
    03:00 +28°C° 0 mm 5 m/S 716 mmHg 19%
    04:00 +27°C° 0 mm 5 m/S 715 mmHg 20%
    05:00 +27°C° 0 mm 5 m/S 716 mmHg 20%
    06:00 +27°C° 0 mm 5 m/S 716 mmHg 20%
    07:00 +28°C° 0 mm 5 m/S 717 mmHg 20%
    08:00 +30°C° 0 mm 5 m/S 717 mmHg 17%
    09:00 +33°C° 0 mm 6 m/S 717 mmHg 14%
    10:00 +35°C° 0 mm 6 m/S 717 mmHg 11%
    11:00 +38°C° 0 mm 6 m/S 717 mmHg 10%
    12:00 +40°C° 0 mm 6 m/S 717 mmHg 9%
    13:00 +41°C° 0 mm 6 m/S 716 mmHg 7%
    14:00 +41°C° 0 mm 7 m/S 716 mmHg 7%
    15:00 +41°C° 0 mm 7 m/S 716 mmHg 7%
    16:00 +41°C° 0 mm 7 m/S 715 mmHg 7%
    17:00 +40°C° 0 mm 6 m/S 715 mmHg 8%
    18:00 +37°C° 0 mm 5 m/S 715 mmHg 9%
    19:00 +36°C° 0 mm 4 m/S 715 mmHg 10%
    20:00 +35°C° 0 mm 5 m/S 716 mmHg 11%
    21:00 +34°C° 0 mm 5 m/S 716 mmHg 13%
    22:00 +33°C° 0 mm 6 m/S 716 mmHg 14%
    23:00 +32°C° 0 mm 7 m/S 716 mmHg 15%

    29 September, Freitag

    Zeit Temperatur Niederschläge Wind Luftdruck Luftfeuchtigkeit
    00:00 +31°C° 0 mm 8 m/S 716 mmHg 16%
    01:00 +31°C° 0 mm 9 m/S 716 mmHg 17%
    02:00 +29°C° 0 mm 10 m/S 716 mmHg 17%
    03:00 +28°C° 0 mm 10 m/S 716 mmHg 18%
    04:00 +27°C° 0 mm 10 m/S 716 mmHg 19%
    05:00 +26°C° 0 mm 10 m/S 716 mmHg 19%
    06:00 +26°C° 0 mm 10 m/S 717 mmHg 20%
    07:00 +26°C° 0 mm 10 m/S 717 mmHg 21%
    08:00 +28°C° 0 mm 10 m/S 718 mmHg 19%
    09:00 +31°C° 0 mm 10 m/S 718 mmHg 17%
    10:00 +33°C° 0 mm 11 m/S 718 mmHg 14%
    11:00 +34°C° 0 mm 11 m/S 718 mmHg 13%
    12:00 +36°C° 0 mm 11 m/S 717 mmHg 12%
    13:00 +38°C° 0 mm 11 m/S 717 mmHg 11%
    14:00 +38°C° 0 mm 10 m/S 717 mmHg 11%
    15:00 +38°C° 0 mm 10 m/S 716 mmHg 11%
    16:00 +38°C° 0 mm 10 m/S 716 mmHg 11%
    17:00 +36°C° 0 mm 10 m/S 716 mmHg 12%
    18:00 +34°C° 0 mm 9 m/S 716 mmHg 13%
    19:00 +33°C° 0 mm 9 m/S 717 mmHg 15%
    20:00 +32°C° 0 mm 9 m/S 717 mmHg 16%
    21:00 +31°C° 0 mm 9 m/S 717 mmHg 18%
    22:00 +29°C° 0 mm 10 m/S 717 mmHg 19%
    23:00 +28°C° 0 mm 10 m/S 717 mmHg 20%

    30 September, Samstag

    Zeit Temperatur Niederschläge Wind Luftdruck Luftfeuchtigkeit
    00:00 +27°C° 0 mm 10 m/S 717 mmHg 22%
    01:00 +26°C° 0 mm 10 m/S 717 mmHg 23%
    02:00 +26°C° 0 mm 9 m/S 717 mmHg 24%
    03:00 +24°C° 0 mm 9 m/S 717 mmHg 24%
    04:00 +23°C° 0 mm 9 m/S 717 mmHg 25%
    05:00 +23°C° 0 mm 8 m/S 717 mmHg 24%
    06:00 +23°C° 0 mm 8 m/S 718 mmHg 24%
    07:00 +23°C° 0 mm 8 m/S 718 mmHg 23%
    08:00 +26°C° 0 mm 8 m/S 719 mmHg 20%
    09:00 +29°C° 0 mm 7 m/S 719 mmHg 17%
    10:00 +32°C° 0 mm 7 m/S 719 mmHg 14%
    11:00 +34°C° 0 mm 7 m/S 719 mmHg 12%
    12:00 +35°C° 0 mm 7 m/S 719 mmHg 11%
    13:00 +38°C° 0 mm 7 m/S 718 mmHg 9%
    14:00 +39°C° 0 mm 7 m/S 718 mmHg 9%
    15:00 +39°C° 0 mm 7 m/S 718 mmHg 9%
    16:00 +39°C° 0 mm 7 m/S 717 mmHg 8%
    17:00 +38°C° 0 mm 6 m/S 717 mmHg 9%
    18:00 +35°C° 0 mm 6 m/S 718 mmHg 11%
    19:00 +34°C° 0 mm 5 m/S 718 mmHg 12%
    20:00 +33°C° 0 mm 6 m/S 718 mmHg 12%
    21:00 +32°C° 0 mm 6 m/S 718 mmHg 13%
    22:00 +30°C° 0 mm 7 m/S 718 mmHg 14%
    23:00 +29°C° 0 mm 7 m/S 718 mmHg 14%

    1 Oktober, Sonntag

    Zeit Temperatur Niederschläge Wind Luftdruck Luftfeuchtigkeit
    00:00 +29°C° 0 mm 6 m/S 717 mmHg 15%
    01:00 +28°C° 0 mm 6 m/S 717 mmHg 15%
    02:00 +27°C° 0 mm 6 m/S 717 mmHg 16%
    03:00 +27°C° 0 mm 6 m/S 717 mmHg 16%
    04:00 +26°C° 0 mm 6 m/S 717 mmHg 17%
    05:00 +26°C° 0 mm 6 m/S 718 mmHg 17%
    06:00 +26°C° 0 mm 6 m/S 718 mmHg 17%
    07:00 +26°C° 0 mm 6 m/S 718 mmHg 17%
    08:00 +29°C° 0 mm 6 m/S 718 mmHg 15%
    09:00 +32°C° 0 mm 6 m/S 719 mmHg 12%
    10:00 +35°C° 0 mm 7 m/S 719 mmHg 10%
    11:00 +36°C° 0 mm 7 m/S 718 mmHg 9%
    12:00 +39°C° 0 mm 7 m/S 718 mmHg 8%
    13:00 +41°C° 0 mm 7 m/S 717 mmHg 7%
    14:00 +41°C° 0 mm 7 m/S 717 mmHg 6%
    15:00 +41°C° 0 mm 7 m/S 716 mmHg 6%
    16:00 +41°C° 0 mm 6 m/S 716 mmHg 6%
    17:00 +39°C° 0 mm 6 m/S 716 mmHg 7%
    18:00 +37°C° 0 mm 5 m/S 716 mmHg 8%
    19:00 +35°C° 0 mm 4 m/S 715 mmHg 9%
    20:00 +34°C° 0 mm 4 m/S 715 mmHg 9%
    21:00 +33°C° 0 mm 4 m/S 715 mmHg 10%
    22:00 +32°C° 0 mm 4 m/S 715 mmHg 11%
    23:00 +32°C° 0 mm 4 m/S 715 mmHg 12%
    Mehr zeigen